Regional Weather Roundup
Issued by NWS

Home | Current Version | Previous Version | Text Only | Print | Product List | Glossary On
Versions: 1 2 3 4 5 6 7 8 9 10 11 12 13 14 15 16 17 18 19 20 21 22 23 24 25 26 27 28 29 30 31 32 33 34 35 36 37 38 39 40 41 42 43 44 45 46 47 48 49 50
000
ASUS43 KLOT 271409
RWRIL

ILLINOIS REGIONAL WEATHER ROUNDUP
NATIONAL WEATHER SERVICE CHICAGO/ROMEOVILLE IL
900 AM CDT SAT MAY 27 2017

NOTE: "FAIR" INDICATES FEW OR NO CLOUDS BELOW 12,000 FEET WITH NO
SIGNIFICANT WEATHER AND/OR OBSTRUCTIONS TO VISIBILITY.

* THESE STATIONS ARE NOT UNDER NWS QUALITY CONTROL. THEY ALSO MAY NOT
  REPORT WEATHER SUCH AS PRECIPITATION OR FOG.

ILZ001-002-007-009-015-016-024-271500-
NORTHWEST ILLINOIS

CITY           SKY/WX    TMP DP  RH WIND       PRES   REMARKS
MOLINE         CLOUDY    59  57  93 E6        29.91F FOG
STERLING*      CLOUDY    58  57  97 CALM      29.93S FOG
SAVANNA*       CLOUDY    57  55  94 S3        29.93R FOG
$$

ILZ003-004-008-010-011-017-018-271500-
NORTH CENTRAL ILLINOIS

CITY           SKY/WX    TMP DP  RH WIND       PRES   REMARKS
ROCKFORD       CLOUDY    63  58  83 SE7       29.93S
FREEPORT*      CLOUDY    59  58  96 SE3       29.94S
ROCHELLE*      CLOUDY    61  58  90 SE6       29.92F
DE KALB*       CLOUDY    62  58  87 E5        29.93S
PERU*          CLOUDY    59  56  89 CALM      29.93S FOG
$$

ILZ005-006-012>014-019>023-271500-
NORTHEAST ILLINOIS

CITY           SKY/WX    TMP DP  RH WIND       PRES   REMARKS
CHICAGO-OHARE  MOSUNNY   62  53  72 CALM      29.92S
CHICAGO-MIDWAY PTSUNNY   65  53  65 NE6       29.92R
AURORA         CLOUDY    63  56  78 E5        29.93S
LANSING*       PTSUNNY   61  57  87 N5        29.93R
JOLIET*        MOSUNNY   65  60  82 E5        29.92F
WAUKEGAN       SUNNY     60  54  80 E6        29.92S
DUPAGE AIRPORT CLOUDY    61  56  83 NE6       29.92S
KANKAKEE*      CLOUDY    64  59  82 CALM      29.92S
WHEELING       MOSUNNY   61  55  81 CALM      29.94R
MORRIS*        CLOUDY    61  57  88 CALM      29.91F
ROMEOVILLE*    CLOUDY    64  59  84 E5        29.92S
$$

LMZ740>746-271500-
SOUTHERN LAKE MICHIGAN

STATION/POSITION SKY/WX   TEMP    WIND        PRES    VSBY  WAVE
                          AIR SEA DIR/SP/G                  HT/PER
                          (F)     (DEG/KT/KT) (MB)    (MI)  (FT/S)
SOUTHERN BUOY              49 46  350/  4/  4 1013.7          0
WILMETTE HARBOR            50 52                N/A           1
HARRISON CRIB              53     340/ 11/ 12   N/A
BURNHAM HARBOR             57     360/  8/ 10   N/A
CALUMET HARBOR             56     340/  5/  8 1013.2R
BURNS HARBOR               54      30/  4/  4 1013.9F
MICHIGAN CITY              53      40/  6/  6   N/A
MICHIGAN CITY 6N           52 54   40/  6/  6   N/A           1
ST. JOSEPH                 57 58   30/  6/  8 1013.6          1
$$

ILZ025>027-034>036-040-047-049-050-058-095>099-271500-
WEST-CENTRAL ILLINOIS

CITY           SKY/WX    TMP DP  RH WIND       PRES   REMARKS
QUINCY         MOSUNNY   65  61  87 NE6       29.89S
GALESBURG*     CLOUDY    58  58 100 E6        29.92R FOG
MACOMB*        FOG       59  59 100 E3        29.94S VSB 1/2
JACKSONVILLE*  CLOUDY    60  60  99 E8        29.90S FOG
PITTSFIELD*    CLOUDY    64  62  94 NE7       29.91R FOG
$$

ILZ028>032-037-038-041>044-048-051>054-059>061-271500-
CENTRAL ILLINOIS

CITY           SKY/WX    TMP DP  RH WIND       PRES   REMARKS
PONTIAC        CLOUDY    61  60  98 NE3       29.93S FOG
BLOOMINGTON    CLOUDY    62  59  90 N13       29.92S FOG
DECATUR        CLOUDY    64  61  90 NE9       29.90R
PEORIA         CLOUDY    61  59  93 E7        29.91F FOG
LACON*         CLOUDY    60  59  97 E6        29.92S FOG
LINCOLN*       MOSUNNY   68  63  84 N8        29.89F
SPRINGFIELD    CLOUDY    64  62  93 NE7       29.90S
TAYLORVILLE    CLOUDY    62  61  96 N12       29.89F
$$

ILZ033-039-045-046-055>057-062-063-271500-
EAST-CENTRAL ILLINOIS

CITY           SKY/WX    TMP DP  RH WIND       PRES   REMARKS
CHAMPAIGN      FOG       62  60  93 N12       29.90S VSB 3/4
RANTOUL*       CLOUDY    62  62  99 N9        29.91R FOG
MATTOON        CLOUDY    66  64  93 N7        29.88S
PARIS*         CLOUDY    65  63  93 N6        29.90R
$$

ILZ079-100>102-271500-
SOUTHWEST ILLINOIS

CITY           SKY/WX    TMP DP  RH WIND       PRES   REMARKS
ALTON          MOSUNNY   70  64  83 VRB6      29.88S
CAHOKIA*       SUNNY     76  66  71 NE3       29.87R
SPARTA*        PTSUNNY   73  67  83 CALM      29.88S
$$

ILZ064>066-069>071-074>076-080>082-084>086-088>090-092>094-271500-
SOUTH-CENTRAL ILLINOIS

CITY           SKY/WX    TMP DP  RH WIND       PRES   REMARKS
CARBONDALE     MOSUNNY   75  71  87 CALM      29.87S
CAIRO*         MOSUNNY   76  72  86 SW6       29.88R
EFFINGHAM*     CLOUDY    71  67  89 NW3       29.90S
MARION         MOSUNNY   75  75 100 CALM      29.88S
MT. VERNON       N/A     75  68  78 E5        29.87S
CENTRALIA*     SUNNY     74  68  82 CALM      29.87S
SALEM*         SUNNY     74  66  75 CALM      29.88R
METROPOLIS*    CLOUDY    77  72  85 NW3       29.87R
$$

ILZ067-068-072-073-078-083-087-091-271500-
SOUTHEAST ILLINOIS

CITY           SKY/WX    TMP DP  RH WIND       PRES   REMARKS
LAWRENCEVILLE  CLOUDY    72  68  87 CALM      29.87S FOG
FLORA*         CLOUDY    75  67  76 N5        29.88R
FAIRFIELD*     CLOUDY    73  67  82 CALM      29.87R
HARRISBURG*    CLOUDY    74  70  89 CALM      29.88S
ROBINSON*      MOSUNNY   72  66  81 N5        29.88S
CARMI*         CLOUDY    73  69  88 CALM      29.87S
$$

ABBREVIATIONS USED IN REMARKS
   TC - TEMPERATURE IN CELSIUS
  WCI - WIND CHILL INDEX
   HX - HEAT INDEX
  VSB - VISIBILITY
$$





USA.gov is the U.S. government's official web portal to all federal, state and local government web resources and services.